Location: Staunton
(38.1490°N, 79.0720°W)
Time: 14:47:40
(UTC-04:00)

ISS - Pass Details

Date: 20 July 2017
Orbit: 400 x 408 km, 51.6° (Epoch: 21 July)

Event Time Altitude Azimuth Distance (km) Brightness Sun altitude
Rises 04:40:08 0° 319° (NW) 2,315 0.0 -15.2°
Reaches altitude 10° 04:42:50 10° 343° (NNW) 1,455 -0.7 -14.8°
Maximum altitude 04:44:54 16° 23° (NNE) 1,167 -0.6 -14.5°
Drops below altitude 10° 04:46:57 10° 62° (ENE) 1,455 0.3 -14.2°
Sets 04:49:39 0° 86° (E) 2,314 0.9 -13.8°
